Printer-friendly version

IAU Minor Planet Center

Minor Planet Center

MPEC 2000-E58: 1999 VM40

The following Minor Planet Electronic Circular may be linked-to from your own Web pages, but must not otherwise be redistributed electronically.


Read MPEC 2000-E57 Read MPEC 2000-E59


M.P.E.C. 2000-E58                                Issued 2000 Mar. 13, 20:16 UT

     The Minor Planet Electronic Circulars contain information on unusual
         minor planets and routine data on comets.  They are published
   on behalf of Commission 20 of the International Astronomical Union by the
          Minor Planet Center, Smithsonian Astrophysical Observatory,
                          Cambridge, MA 02138, U.S.A.

             Prepared using the Tamkin Foundation Computer Network

             BMARSDEN@CFA.HARVARD.EDU or GWILLIAMS@CFA.HARVARD.EDU
          URL http://cfa-www.harvard.edu/iau/mpc.html  ISSN 1523-6714

                                   1999 VM40

                           Revision to MPEC 1999-W33

Observations:
     J99V40M 6 1974 08 13.42213 18 16 35.52 -45 34 34.5                      413
     J99V40M 6 1974 08 13.44991 18 16 33.83 -45 34 29.3                      413

Observer details:
413 Siding Spring.  Trail located and measured by A. Boattini, G. Forti,
    M. Tombelli, L. Tesi.  1.2-m Schmidt.

First and last observations above in comparison with prediction:
Residuals in seconds of arc (or two decimals in degrees), reference and Delta-T
740813 413 0.12+ 0.05-    740813 413 0.12+ 0.05-    MPC 38818   -0.35 day

Orbital elements:
1999 VM40
Epoch 2000 Feb. 26.0 TT = JDT 2451600.5                 Williams
M  43.43765              (2000.0)            P               Q
n   0.28075280     Peri.  354.17778     +0.69509889     -0.68825972
a   2.3098653      Node    51.56001     +0.66982869     +0.51510533
e   0.4848554      Incl.   15.37670     +0.26108822     +0.51084739
P   3.51           H   14.5           G   0.15           U   2
Residuals in seconds of arc
740813 413  0.6+  0.3-    991222 118  0.2+  0.0     000205 151  0.6-  0.7-
740813 413  0.7-  0.1-    991222 118  0.2+  0.1+    000205 151  0.2-  0.8-
991020 699  0.0   0.9+    991229 402  0.4+  0.2-    000205 151  0.1+  0.2-
991020 699  0.2-  0.1+    991229 402  0.5+  0.1-    000208 294  1.0+  0.5-
991020 699  0.4-  1.4+    991229 402  0.4+  0.0     000208 294  1.6+  0.8-
991109 703  0.5+  0.6+    991230 704  0.8+  0.1+    000209 294 (3.5-  1.9-)
991109 703  0.3+  0.4+    991230 704  0.9+  0.1-    000209 294 (4.4-  0.5-)
991109 703  0.4+  0.1-    991230 704  0.9+  0.3-    000210 610  1.7+  0.1-
991109 703  0.2+  0.2+    991230 704  1.3+  0.4-    000210 610  0.3+  0.0
991110 703  0.2+  0.3+    991230 704  1.3+  0.8-    000210 610  1.1-  0.2+
991110 703  0.8+  0.5+    991230 900  0.6-  1.5+    000210 610 (2.5-  0.4+)
991112 699  0.0   0.3+    991230 900  0.8-  1.5+    000210 610 (3.9-  0.6+)
991112 699  0.1+  0.4+    000101 726  0.5+  1.3-    000211 355  0.3+  0.2-
991112 699  0.0   0.4+    000101 726  0.4+  0.6-    000211 355  0.1+  0.0
991121 046  0.0   0.1+    000101 726  1.0+  0.4-    000211 355  0.1+  0.2-
991121 046  0.1+  0.0     000101 726  0.4+  0.8-    000212 610  0.1+  0.6-
991121 046  0.0   0.0     000101 726  0.9+  0.3+    000212 610  0.3+  0.5-
991121 046  0.0   0.1+    000103 670  0.1-  0.2-    000212 610  0.5+  0.4-
991121 557  0.3+  0.2-    000103 670  0.1+  0.0     000212 610  0.7+  0.3-
991121 557  0.0   0.1-    000103 670  0.2+  0.0     000212 610  0.9+  0.2-
991121 557  0.1+  0.2-    000110 049  0.3+  0.1-    000215 704  0.5+  0.1+
991121 557  0.3-  0.4-    000110 049  0.2+  0.0     000215 704  0.9+  0.9-
991121 693  1.1+  0.7+    000110 049  0.0   0.2-    000215 704  0.7+  0.5-
991121 693  0.1+  0.2+    000116 049  0.2+  0.2-    000215 704  1.8-  1.6-
991122 734  0.6+  0.7-    000116 049  0.2+  0.2-    000215 355  0.6+  0.1-
991122 734  0.4+  1.4-    000116 049  0.1+  0.2-    000215 355  0.6+  0.2+
991122 734  0.2+  0.8-    000119 151  0.6+  0.2-    000215 355  0.8+  0.0
991122 734  0.4-  0.5-    000119 151  0.4-  0.6-    000219 610  0.3-  0.2-
991126 903  0.0   0.2-    000119 151  1.5+  0.6-    000219 610  0.4-  0.7-
991126 903  0.9-  0.5-    000119 151  1.0-  0.8+    000219 610  0.5-  1.3-
991126 903  0.1-  0.8-    000119 151  0.7-  0.6+    000219 610  0.6-  1.8-
991126 557  0.1+  0.1+    000119 151  1.0-  0.2-    000219 610 (0.8-  2.4-)
991126 557  0.2-  0.1-    000119 151  0.5+  0.3+    000220 611  0.7-  0.1+
991126 557  0.3-  0.5-    000121 615  0.5+  0.4-    000220 611  0.0   0.4+
991127 611  0.2+  0.4+    000121 615  0.5+  0.6-    000221 151  0.0   0.7+
991127 611  1.6-  0.5+    000121 615  0.2+  0.3-    000221 151  0.5-  0.5-
991127 046  0.1+  0.1-    000121 615  0.2+  0.2-    000221 151  0.9-  0.7-
991127 595  0.5-  0.4-    000121 610  0.0   1.3-    000221 151  0.3-  0.2-
991127 046  0.3+  0.3-    000121 610  0.0   0.9-    000221 151  0.4-  0.6+
991127 046  0.1+  0.2-    000121 610  0.1+  0.3-    000222 151  0.4-  0.3-
991127 595  0.4-  0.5-    000121 610  0.2+  0.2+    000222 151  0.1+  0.6+
991127 046  0.1+  0.2-    000121 610  0.3+  0.6+    000222 151  0.3+  0.2-
991127 595  0.3-  0.7-    000125 610  1.1+  1.9+    000222 151  0.1-  0.3-
991127 734  0.8-  0.7-    000125 610  1.0+  1.9+    000222 151  0.2+  0.1-
991127 734  0.1+  0.1-    000125 610  1.0+  2.0+    000222 151  0.6-  0.0
991127 734  0.4-  1.2-    000125 610 (1.0+  2.0+)   000223 610  0.5+  0.3+
991127 587  1.2-  1.6-    000125 610  1.1+  2.0+    000223 610  0.4+  0.3+
991127 587  1.4-  1.0-    000127 704  0.2+  0.4-    000223 610  0.3+  0.3+
991127 587  1.5-  0.6-    000127 704  0.6+  0.5-    000223 610  0.2+  0.3+
991128 046  0.1-  0.1+    000127 704  0.9+  0.4-    000223 610  0.1+  0.3+
991128 046  0.0   0.0     000127 151  0.4+  0.8+    000225 610  0.2+  0.2-
991128 046  0.1-  0.2+    000127 151  0.1+  0.8+    000225 610  0.0   0.3-
991128 046  0.0   0.0     000127 151  0.4-  0.1+    000225 610  0.2-  0.4-
991128 046  0.2-  0.1+    000127 151  0.6-  0.4+    000225 610  0.5-  0.5-
991130 611  0.0   0.7+    000127 151  0.3-  0.0     000225 610  0.7-  0.6-
991130 046  0.1+  0.1+    000127 610  0.3+  0.6+    000226 704  0.1-  0.4+
991130 046  0.0   0.1+    000127 610  0.1+  0.5+    000226 704  0.0   0.4+
991130 046  0.1-  0.0     000127 610  0.0   0.4+    000226 704  0.5+  0.4+
991130 046  0.2+  0.1+    000127 610  0.1-  0.4+    000226 704  0.3+  0.2+
991202 557  0.2-  0.2+    000127 610  0.2-  0.2+    000227 610  0.4-  1.1-
991203 557  0.4-  0.0     000128 704  0.2+  0.2+    000227 610  0.6-  0.8-
991203 557  0.1+  0.0     000128 704  0.5+  0.0     000227 610  0.7-  0.6-
991203 557  0.4-  0.1-    000128 704  0.2-  0.5-    000227 610  0.9-  0.4-
991205 670  1.1-  0.4+    000128 704  0.2+  0.1+    000227 610  1.2-  0.1-
991205 670  1.0-  0.6+    000128 704  0.2+  0.1+    000227 151  0.6-  0.2+
991205 670  0.6-  0.5+    000128 900  0.7-  0.2+    000227 151  0.3-  0.8+
991207 703  0.3+  0.6+    000128 900  0.4-  0.4+    000227 151  0.1-  0.1-
991207 703  0.4+  0.4+    000129 670  0.2-  0.6+    000227 151  0.0   0.6+
991207 703  0.4+  0.3+    000129 704  0.0   0.1+    000227 151  1.0-  0.2-
991207 703  0.2+  0.5+    000129 704  0.0   0.2+    000227 151  0.8-  0.4+
991212 670  0.1+  0.3+    000129 704  0.1-  0.3+    000302 670  1.3-  0.6+
991212 670  0.4+  0.3+    000129 670  0.5-  0.6+    000302 670  0.6-  0.2+
991212 670  0.3+  0.4+    000129 704  0.1-  0.0     000302 610  0.2+  0.5+
991213 670  0.2+  0.3+    000129 704  0.1-  0.3+    000302 610  0.4+  0.5+
991213 670  0.4-  0.1+    000129 670  1.2-  0.2-    000302 610  0.4+  0.5+
991213 670  0.3+  0.0     000130 610  0.6-  0.0     000302 610  0.5+  0.5+
991214 118  0.2+  0.4+    000130 610  0.5-  0.1+    000302 610  0.5+  0.6+
991214 118  0.1+  0.0     000130 610  0.5-  0.2+    000304 610  0.1+  0.5+
991214 670  0.3+  0.1-    000130 610  0.4-  0.3+    000304 610  0.1-  0.6+
991214 670  0.3-  0.3+    000130 610  0.3-  0.3+    000304 610  0.3-  0.7+
991217 670  1.6-  0.2+    000131 151  0.1-  0.0     000304 610  0.6-  0.9+
991217 670  0.4-  0.1-    000131 151  0.2-  0.6-    000304 610  0.8-  0.9+
991218 610  0.4-  0.8-    000131 151  0.1-  0.1+    000305 610  0.2+  0.4+
991218 610  0.3-  0.5-    000131 151  0.3-  0.3-    000305 610  0.1+  0.4+
991218 610  0.3-  0.2-    000131 151  0.8-  0.1-    000305 610  0.1+  0.3+
991218 610  0.2-  0.1+    000131 151  0.4+  0.4-    000305 610  0.1-  0.1+
991218 610  0.1-  0.4+    000202 670  0.7-  0.2-    000305 610  0.2-  0.0
991219 670  0.2+  0.5-    000202 670  0.2-  0.2-    000306 151  0.7-  0.1-
991219 670  0.1-  0.3-    000202 355  0.2+  0.1-    000306 151  0.5-  0.1-
991219 670  0.3-  0.2-    000202 355  0.1+  0.2-    000306 151  0.4+  0.5+
991219 900  0.1-  0.4+    000202 355  0.0   0.6-    000306 151  0.1+  0.3-
991219 900  0.3-  0.1+    000205 151  0.4+  0.1+    000307 360  0.1+  0.2-
991221 670  1.1+  0.1-    000205 151  0.8-  0.7-    000307 360  0.2+  0.2-
991221 670  0.9+  0.7+    000205 151  0.2+  0.9-    000307 360  0.1+  0.1-

Ephemeris:
1999 VM40                a,e,i = 2.31, 0.48, 15                  q = 1.1899
Date    TT    R. A. (2000) Decl.     Delta      r     Elong.  Phase     V
2000 03 07    09 33.87   +43 20.3    1.138    1.978   136.3    20.3    17.3
2000 03 17    09 28.29   +41 20.6    1.260    2.039   129.1    22.3    17.6
2000 03 27    09 27.22   +39 08.5    1.395    2.099   121.7    23.9    18.0
2000 04 06    09 29.81   +36 51.7    1.542    2.158   114.4    25.0    18.3
2000 04 16    09 35.26   +34 34.5    1.698    2.215   107.3    25.6    18.5
2000 04 26    09 42.86   +32 19.1    1.862    2.272   100.5    25.8    18.8
2000 05 06    09 52.03   +30 06.1    2.030    2.327    93.9    25.6    19.0
2000 05 16    10 02.38   +27 55.6    2.201    2.381    87.4    25.1    19.3
2000 05 26    10 13.56   +25 47.7    2.372    2.433    81.2    24.3    19.4
2000 06 05    10 25.35   +23 42.1    2.543    2.484    75.1    23.2    19.6
2000 06 15    10 37.57   +21 38.5    2.712    2.534    69.1    22.0    19.7
2000 06 25    10 50.08   +19 36.9    2.876    2.582    63.2    20.6    19.9

Gareth V. Williams           (C) Copyright 2000 MPC           M.P.E.C. 2000-E58

Read MPEC 2000-E57 Read MPEC 2000-E59


Our Web policy. Index to the CBAT/MPC/ICQ pages.


Valid HTML 4.01!